Location: Ostrava
(49.8330°N, 18.2830°E)
Time: 03:50:47
(UTC+02:00)

Iridium 7 - Visible Passes

Search period start: 27 July 2016 00:00
Search period end: 06 August 2016 00:00
Orbit: 776 x 779 km, 86.4° (Epoch: 26 July)

Date Brightness Start Highest point End Pass type
(mag) Time Alt. Az. Time Alt. Az. Time Alt. Az.
27 Jul 8.0 00:08:38 10° NW 00:11:12 14° WNW 00:13:47 10° WSW visible
27 Jul 5.8 21:52:34 10° N 21:57:43 55° E 22:02:07 14° SSE visible
27 Jul 7.5 23:34:01 10° NNW 23:38:03 23° WNW 23:42:04 10° SW visible
28 Jul 6.4 21:19:16 10° NNE 21:24:00 33° ENE 21:28:41 10° SE visible
28 Jul 6.7 22:59:58 10° NNW 23:04:46 38° W 23:09:18 11° SSW visible
29 Jul 5.9 22:26:11 10° N 22:31:22 65° W 22:36:01 13° S visible
30 Jul 5.5 21:52:36 10° N 21:57:51 76° E 22:02:45 12° S visible
30 Jul 7.9 23:34:39 10° NW 23:37:56 17° WNW 23:41:12 10° WSW visible
31 Jul 6.0 21:19:11 10° N 21:24:12 45° E 21:29:12 10° SSE visible
31 Jul 7.3 23:00:19 10° NNW 23:04:43 28° W 23:09:06 10° SW visible
01 Aug 6.4 22:26:24 10° NNW 22:31:24 47° W 22:36:21 10° SSW visible
02 Aug 5.6 21:52:41 10° N 21:57:56 80° W 22:03:09 10° S visible
02 Aug 8.1 23:35:41 10° NW 23:37:45 12° WNW 23:39:50 10° W visible
03 Aug 5.6 21:19:10 10° N 21:24:22 62° E 21:29:32 10° SSE visible
03 Aug 7.7 23:00:48 10° NNW 23:04:37 21° WNW 23:08:25 10° SW visible
04 Aug 7.0 22:26:41 10° NNW 22:31:22 34° W 22:36:02 10° SSW visible
05 Aug 6.1 21:52:51 10° N 21:57:59 58° W 22:03:05 10° SSW visible
